Weather in Skolkovo

Russia / Moscow Oblast     55°41′16″N   37°21′57″E
temp.,
°C
wind,
m/s
gust,
m/s
humid.,
%
clouds,
%
prec.,
mm/h
press.,
hPa
HPBL,
m
8 march, mon
mon800:00−8w4118540 0.2 996416
03:00−9wsw4119150 0.2 996359
06:00−7wsw41093100 0.1 996621
09:00−8wnw5987100 0.6 998812
12:00−6nw4783100 0.1 10011060
15:00−5nw4681100 0.1 10031035
18:00−8nnw4891100 0.1 1006492
21:00−11nnw249579 0.2 1009117
9 march, tue
tue900:00−14nnw239625 0.0 101172
03:00−16nw259750 0.0 1013131
06:00−17nnw269767 0.0 1014136
09:00−16nnw379364 0.0 1016337
12:00−13nnw358891 0.0 1017607
15:00−12nnw468396 0.1 1018798
18:00−14nnw3789100 0.0 1019319
21:00−19n279692 0.1 1022181
10 march, wed
wed1000:00−22nnw24970 0.0 1024111
03:00−23nnw24970 0.0 1026107
06:00−25nnw24979 0.0 1028110
09:00−23n35945 0.0 1029255
12:00−17n35830 0.0 1030427
15:00−14n24760 0.0 1030637
18:00−16nw23860 0.0 103028
21:00−19wnw33910 0.0 103167
11 march, thu
thu1100:00−19wnw35910 0.0 103197
03:00−19wnw23930 0.0 103269
06:00−20wnw23960 0.0 103251
09:00−17wnw24930 0.0 1033178
12:00−11wnw23849 0.0 1032410
15:00−8w227850 0.0 1031726
18:00−11sw128697 0.0 103021
21:00−14ssw239152 0.0 103153
12 march, fri
fri1200:00−16ssw35870 0.0 103089
03:00−18s38880 0.0 1029186
06:00−18s310820 0.0 1028226
09:00−15s5118110 0.0 1025359
12:00−10s61283100 0.0 1022558
15:00−7s71482100 0.0 1019859
18:00−7s71592100 0.6 10161106
21:00−6s71593100 1.5 10141100